Topeka Forbes, KS

6:37 PM CDT on June 23, 2017 (GMT -0500)
Forbes

Weather History for KFOE - April, 2014

Change the Weather History Date:

Monday, April 7, 2014

  Actual Average Record
Temperature  
Mean Temperature 52 °F -  
Max Temperature 64 °F 67 °F 88 °F (2015)
Min Temperature 42 °F 40 °F 18 °F (2007)
Degree Days  
Heating Degree Days 12    
Growing Degree Days 2 (Base 50)    
Moisture  
Dew Point 39 °F    
Average Humidity 63    
Maximum Humidity 80    
Minimum Humidity 40    
Precipitation  
Precipitation 0.12 in - - ()
Sea Level Pressure  
Sea Level Pressure 29.81 in    
Wind  
Wind Speed 6 mph (NW)    
Max Wind Speed 24 mph    
Max Gust Speed 37 mph    
Visibility 7 miles    
Events Rain , Thunderstorm    
Averages and records for this station are not official NWS values.
T = Trace of Precipitation, MM = Missing Value Source: NWS Daily Summary

Daily Weather History Graph

Daily Weather History Graph

Search for Another Location

Airport or City:

Trip Planner

Search our weather history database for the weather conditions in past years. The results will help you decide how hot, cold, wet, or windy it might be!

Date:

Astronomy

Apr. 07, 2014 Rise Set
Actual Time 6:57 AM CDT 7:52 PM CDT
Civil Twilight 6:30 AM CDT 8:19 PM CDT
Nautical Twilight 5:58 AM CDT 8:51 PM CDT
Astronomical Twilight 5:25 AM CDT 9:25 PM CDT
Moon 12:56 PM CDT (4/7) 2:28 AM CDT (4/7)
Length of Visible Light 13h 48m
Length of Day
12h 54m
First Quarter, 53% of the Moon is Illuminated
Apr 7
First Quarter
Apr 15
Full
Apr 22
Last Quarter
Apr 29
New
May 6
First Quarter

Hourly Weather History & Observations

Time (CDT) Temp. Windchill Dew Point Humidity Pressure Visibility Wind Dir Wind Speed Gust Speed Precip Events Conditions
12:53 AM 46.9 °F - 39.0 °F 74% 29.83 in 6.0 mi Calm Calm - N/A   Haze
1:53 AM 45.0 °F 41.8 °F 37.9 °F 76% 29.81 in 7.0 mi NNW 5.8 mph - N/A   Mostly Cloudy
2:53 AM 43.0 °F 41.3 °F 36.0 °F 76% 29.77 in 5.0 mi North 3.5 mph - N/A   Haze
3:53 AM 42.1 °F 40.2 °F 36.0 °F 79% 29.77 in 5.0 mi WNW 3.5 mph - N/A   Haze
4:53 AM 44.1 °F 41.5 °F 37.9 °F 79% 29.76 in 5.0 mi NNW 4.6 mph - N/A   Haze
5:53 AM 45.0 °F - 39.0 °F 80% 29.78 in 5.0 mi Calm Calm - N/A   Haze
6:53 AM 45.0 °F 43.5 °F 39.0 °F 80% 29.80 in 5.0 mi WNW 3.5 mph - N/A   Haze
7:53 AM 46.0 °F 44.8 °F 39.9 °F 79% 29.81 in 4.0 mi West 3.5 mph - N/A   Haze
8:53 AM 48.0 °F - 39.9 °F 74% 29.82 in 3.0 mi NW 4.6 mph - N/A   Haze
9:53 AM 48.9 °F - 39.9 °F 71% 29.81 in 4.0 mi NW 6.9 mph - N/A   Haze
10:53 AM 51.1 °F - 41.0 °F 68% 29.81 in 4.0 mi NW 3.5 mph - N/A   Haze
11:53 AM 59.0 °F - 39.0 °F 48% 29.81 in 6.0 mi WNW 9.2 mph - N/A   Haze
12:53 PM 60.1 °F - 39.0 °F 46% 29.81 in 6.0 mi WNW 13.8 mph - N/A   Haze
1:53 PM 61.0 °F - 39.0 °F 44% 29.81 in 10.0 mi NW 15.0 mph - N/A   Mostly Cloudy
2:53 PM 62.1 °F - 42.1 °F 48% 29.81 in 9.0 mi NW 17.3 mph 23.0 mph N/A   Overcast
3:53 PM 62.1 °F - 39.9 °F 44% 29.79 in 10.0 mi NNW 13.8 mph - N/A   Scattered Clouds
4:53 PM 63.0 °F - 37.9 °F 40% 29.78 in 10.0 mi North 12.7 mph - 0.00 in   Mostly Cloudy
5:53 PM 60.1 °F - 37.9 °F 44% 29.80 in 10.0 mi NNE 10.4 mph - N/A   Mostly Cloudy
6:23 PM 59.0 °F - 39.0 °F 48% 29.80 in 10.0 mi North 4.6 mph - N/A Thunderstorm Mostly Cloudy
6:36 PM 55.0 °F - 39.9 °F 57% 29.82 in 4.0 mi North 24.2 mph 33.4 mph 0.02 in Rain , Thunderstorm Light Thunderstorms and Rain
6:41 PM 51.1 °F - 39.9 °F 66% 29.81 in 1.8 mi North 18.4 mph 36.8 mph 0.09 in Rain , Thunderstorm Heavy Thunderstorms and Rain
6:51 PM 53.6 °F - 37.4 °F 54% 29.80 in 3.0 mi NNE 5.8 mph 25.3 mph 0.12 in Rain , Thunderstorm Light Thunderstorms and Rain
6:53 PM 53.1 °F - 37.9 °F 57% 29.81 in 5.0 mi NNE 4.6 mph - 0.12 in Rain , Thunderstorm Light Thunderstorms and Rain
7:09 PM 52.0 °F - 42.1 °F 69% 29.81 in 10.0 mi NW 6.9 mph - 0.00 in   Mostly Cloudy
7:53 PM 54.0 °F - 41.0 °F 62% 29.82 in 10.0 mi WNW 6.9 mph - 0.00 in   Overcast
8:53 PM 51.1 °F - 41.0 °F 68% 29.85 in 10.0 mi WSW 9.2 mph - N/A   Overcast
9:53 PM 50.0 °F - 39.9 °F 68% 29.87 in 10.0 mi WNW 10.4 mph - N/A   Clear
10:53 PM 50.0 °F - 37.0 °F 61% 29.88 in 10.0 mi NW 12.7 mph - N/A   Clear
11:53 PM 48.0 °F - 35.1 °F 61% 29.90 in 10.0 mi NW 15.0 mph - N/A   Clear